| time (UTC) | temp F | wind direction | speed MPH | gust MPH | rain 1hr in | rain 24hr in | rain mn in | humidity % | barometer mb |
| 20260505013304 | 58 | 73 | 2.0 | 5.0 | 0.00 | 0.01 | 0.01 | 87 | 1029.5 |
| 20260505012806 | 57 | 57 | 3.0 | 5.0 | 0.00 | 0.01 | 0.01 | 87 | 1029.5 |
| 20260505012305 | 57 | 50 | 1.0 | 3.0 | 0.00 | 0.01 | 0.01 | 89 | 1029.5 |
| 20260505011805 | 56 | 49 | 2.0 | 3.0 | 0.00 | 0.01 | 0.01 | 89 | 1029.3 |
| 20260505010805 | 55 | 67 | 0.0 | 1.0 | 0.00 | 0.01 | 0.01 | 93 | 1029.3 |
| 20260505010306 | 54 | 67 | 1.0 | 2.0 | 0.00 | 0.01 | 0.01 | 93 | 1029.3 |
| 20260505005304 | 52 | 18 | 1.0 | 3.0 | 0.00 | 0.01 | 0.01 | 96 | 1029.1 |
| 20260505004805 | 51 | 14 | 1.0 | 2.0 | 0.00 | 0.01 | 0.01 | 97 | 1029.1 |
| 20260505004306 | 49 | 14 | 0.0 | 1.0 | 0.00 | 0.01 | 0.01 | 96 | 1029.1 |
| 20260505003805 | 49 | 14 | 0.0 | 1.0 | 0.00 | 0.01 | 0.01 | 98 | 1029.1 |
| 20260505003305 | 48 | 14 | 1.0 | 1.0 | 0.00 | 0.01 | 0.01 | 98 | 1029.1 |
| 20260505002805 | 47 | 14 | 0.0 | 0.0 | 0.01 | 0.01 | 0.01 | 100 | 1029.1 |
| 20260505002305 | 45 | 14 | 0.0 | 1.0 | 0.01 | 0.01 | 0.01 | 99 | 1029.1 |
| 20260505001805 | 44 | 14 | 0.0 | 1.0 | 0.01 | 0.01 | 0.01 | 99 | 1029.1 |
| 20260505000804 | 43 | 113 | 0.0 | 1.0 | 0.01 | 0.01 | 0.01 | 99 | 1028.8 |
| 20260505000305 | 42 | 113 | 0.0 | 1.0 | 0.01 | 0.01 | 0.01 | 99 | 1028.8 |
| 20260504235805 | 42 | 113 | 0.0 | 1.0 | 0.01 | 0.01 | 0.01 | 99 | 1028.8 |
| 20260504235306 | 41 | 113 | 0.0 | 1.0 | 0.01 | 0.01 | 0.01 | 99 | 1028.8 |
| 20260504234805 | 40 | 113 | 0.0 | 1.0 | 0.01 | 0.01 | 0.01 | 99 | 1028.8 |
| 20260504233804 | 40 | 112 | 0.0 | 1.0 | 0.01 | 0.01 | 0.01 | 98 | 1028.8 |
| 20260504233306 | 39 | 112 | 0.0 | 1.0 | 0.01 | 0.01 | 0.01 | 99 | 1028.7 |
| 20260504232806 | 39 | 89 | 0.0 | 1.0 | 0.00 | 0.00 | 0.00 | 98 | 1028.6 |
| 20260504232305 | 39 | 123 | 0.0 | 1.0 | 0.00 | 0.00 | 0.00 | 98 | 1028.6 |
| 20260504231806 | 39 | 65 | 0.0 | 0.0 | 0.00 | 0.00 | 0.00 | 98 | 1028.6 |
| 20260504231305 | 38 | 2 | 0.0 | 0.0 | 0.00 | 0.00 | 0.00 | 98 | 1028.6 |
| 20260504230306 | 38 | 2 | 0.0 | 0.0 | 0.00 | 0.00 | 0.00 | 97 | 1028.3 |
| 20260504225805 | 38 | 2 | 0.0 | 1.0 | 0.00 | 0.00 | 0.00 | 97 | 1028.3 |
| 20260504225304 | 38 | 2 | 0.0 | 1.0 | 0.00 | 0.00 | 0.00 | 97 | 1028.0 |
| 20260504224306 | 38 | 2 | 0.0 | 0.0 | 0.00 | 0.00 | 0.00 | 97 | 1028.0 |
| 20260504223805 | 38 | 2 | 0.0 | 0.0 | 0.00 | 0.00 | 0.00 | 97 | 1028.0 |
| 20260504223305 | 38 | 2 | 0.0 | 0.0 | 0.00 | 0.00 | 0.00 | 97 | 1028.0 |
| 20260504222805 | 38 | 2 | 0.0 | 0.0 | 0.00 | 0.00 | 0.00 | 97 | 1028.1 |
| 20260504221806 | 38 | 2 | 0.0 | 0.0 | 0.00 | 0.00 | 0.00 | 97 | 1028.0 |
| 20260504221306 | 39 | 2 | 0.0 | 0.0 | 0.00 | 0.00 | 0.00 | 97 | 1028.0 |
| 20260504220805 | 39 | 2 | 0.0 | 1.0 | 0.00 | 0.00 | 0.00 | 97 | 1028.0 |
| 20260504220305 | 39 | 2 | 0.0 | 0.0 | 0.00 | 0.00 | 0.00 | 97 | 1028.0 |
| 20260504215805 | 39 | 2 | 0.0 | 0.0 | 0.00 | 0.00 | 0.00 | 97 | 1028.0 |
| 20260504214305 | 39 | 2 | 0.0 | 1.0 | 0.00 | 0.00 | 0.00 | 97 | 1028.0 |
| 20260504213806 | 39 | 2 | 0.0 | 0.0 | 0.00 | 0.00 | 0.00 | 97 | 1027.9 |
| 20260504213304 | 39 | 2 | 0.0 | 1.0 | 0.00 | 0.00 | 0.00 | 97 | 1027.9 |
| 20260504212805 | 39 | 2 | 0.0 | 1.0 | 0.00 | 0.00 | 0.00 | 97 | 1027.9 |
| 20260504212306 | 39 | 2 | 0.0 | 1.0 | 0.00 | 0.00 | 0.00 | 96 | 1027.8 |
| 20260504211805 | 39 | 2 | 0.0 | 2.0 | 0.00 | 0.00 | 0.00 | 97 | 1027.8 |
| 20260504210806 | 40 | 2 | 0.0 | 1.0 | 0.00 | 0.00 | 0.00 | 96 | 1027.8 |
| 20260504210306 | 40 | 2 | 0.0 | 1.0 | 0.00 | 0.00 | 0.00 | 96 | 1027.8 |
| 20260504205805 | 40 | 2 | 0.0 | 1.0 | 0.00 | 0.00 | 0.00 | 97 | 1027.8 |
| 20260504205305 | 40 | 2 | 1.0 | 1.0 | 0.00 | 0.00 | 0.00 | 97 | 1027.5 |
| 20260504204305 | 40 | 33 | 0.0 | 1.0 | 0.00 | 0.01 | 0.00 | 96 | 1027.5 |
| 20260504203805 | 40 | 33 | 0.0 | 0.0 | 0.00 | 0.01 | 0.00 | 96 | 1027.5 |
| 20260504203305 | 40 | 33 | 0.0 | 1.0 | 0.00 | 0.01 | 0.00 | 96 | 1027.5 |
| 20260504202806 | 40 | 33 | 0.0 | 1.0 | 0.00 | 0.01 | 0.00 | 96 | 1027.5 |
| 20260504202305 | 40 | 33 | 1.0 | 1.0 | 0.00 | 0.01 | 0.00 | 96 | 1027.5 |
| 20260504201305 | 41 | 27 | 1.0 | 2.0 | 0.00 | 0.01 | 0.00 | 96 | 1027.5 |
| 20260504200306 | 41 | 27 | 0.0 | 1.0 | 0.00 | 0.01 | 0.00 | 96 | 1027.5 |
| 20260504195804 | 41 | 27 | 0.0 | 2.0 | 0.00 | 0.01 | 0.00 | 96 | 1027.5 |
| 20260504195304 | 41 | 27 | 1.0 | 2.0 | 0.00 | 0.01 | 0.00 | 96 | 1027.5 |
| 20260504194806 | 41 | 33 | 1.0 | 2.0 | 0.00 | 0.01 | 0.00 | 96 | 1027.5 |
| 20260504194305 | 41 | 33 | 0.0 | 2.0 | 0.00 | 0.01 | 0.00 | 96 | 1027.5 |
| 20260504193804 | 41 | 30 | 1.0 | 2.0 | 0.00 | 0.01 | 0.00 | 96 | 1027.5 |
| 20260504192805 | 41 | 310 | 0.0 | 1.0 | 0.00 | 0.01 | 0.00 | 96 | 1027.5 |
| 20260504192305 | 41 | 310 | 0.0 | 1.0 | 0.00 | 0.01 | 0.00 | 96 | 1027.5 |
| 20260504191805 | 41 | 310 | 1.0 | 1.0 | 0.00 | 0.01 | 0.00 | 96 | 1027.5 |
| 20260504191305 | 42 | 310 | 0.0 | 1.0 | 0.00 | 0.01 | 0.00 | 96 | 1027.9 |
| 20260504190805 | 42 | 310 | 1.0 | 2.0 | 0.00 | 0.01 | 0.00 | 96 | 1027.9 |
| 20260504190305 | 42 | 224 | 0.0 | 2.0 | 0.00 | 0.01 | 0.00 | 95 | 1027.9 |
| 20260504185806 | 42 | 224 | 0.0 | 1.0 | 0.00 | 0.01 | 0.00 | 96 | 1027.9 |
| 20260504185305 | 42 | 224 | 1.0 | 2.0 | 0.00 | 0.01 | 0.00 | 95 | 1027.9 |
| 20260504184805 | 42 | 224 | 0.0 | 0.0 | 0.00 | 0.01 | 0.00 | 95 | 1027.9 |
| 20260504184305 | 42 | 224 | 0.0 | 0.0 | 0.00 | 0.01 | 0.00 | 96 | 1027.9 |
| 20260504183806 | 42 | 224 | 0.0 | 1.0 | 0.00 | 0.01 | 0.00 | 95 | 1027.9 |
| 20260504183305 | 42 | 224 | 0.0 | 1.0 | 0.00 | 0.01 | 0.00 | 95 | 1027.9 |
| 20260504182804 | 42 | 224 | 0.0 | 3.0 | 0.00 | 0.01 | 0.00 | 95 | 1027.9 |
| 20260504181805 | 42 | 83 | 0.0 | 0.0 | 0.00 | 0.01 | 0.00 | 95 | 1027.9 |
| 20260504181305 | 42 | 83 | 0.0 | 0.0 | 0.00 | 0.01 | 0.00 | 95 | 1027.9 |
| 20260504180805 | 43 | 83 | 0.0 | 0.0 | 0.00 | 0.01 | 0.00 | 95 | 1027.9 |
| 20260504175806 | 43 | 83 | 0.0 | 0.0 | 0.00 | 0.01 | 0.00 | 95 | 1027.9 |
| 20260504175305 | 43 | 83 | 0.0 | 0.0 | 0.00 | 0.01 | 0.00 | 95 | 1027.9 |
| 20260504174806 | 43 | 83 | 0.0 | 0.0 | 0.00 | 0.01 | 0.00 | 94 | 1027.9 |
| 20260504174306 | 43 | 83 | 0.0 | 0.0 | 0.00 | 0.01 | 0.00 | 94 | 1027.9 |
| 20260504173805 | 43 | 83 | 0.0 | 0.0 | 0.00 | 0.01 | 0.00 | 95 | 1027.9 |
| 20260504172807 | 44 | 83 | 0.0 | 0.0 | 0.00 | 0.01 | 0.00 | 94 | 1027.9 |
| 20260504171305 | 44 | 83 | 0.0 | 1.0 | 0.00 | 0.01 | 0.00 | 94 | 1027.9 |
| 20260504170806 | 44 | 83 | 0.0 | 1.0 | 0.00 | 0.01 | 0.00 | 94 | 1027.9 |
| 20260504170304 | 44 | 83 | 0.0 | 1.0 | 0.00 | 0.01 | 0.00 | 94 | 1027.9 |
| 20260504160305 | 45 | 83 | 1.0 | 2.0 | 0.00 | 0.01 | 0.00 | 94 | 1028.3 |
| 20260504150804 | 48 | 83 | 1.0 | 1.0 | 0.00 | 0.01 | 0.01 | 92 | 1028.2 |
| 20260504150305 | 48 | 83 | 0.0 | 1.0 | 0.00 | 0.01 | 0.01 | 92 | 1028.2 |
| 20260504141305 | 50 | 83 | 0.0 | 0.0 | 0.00 | 0.02 | 0.01 | 91 | 1028.2 |
| 20260504140806 | 50 | 83 | 0.0 | 0.0 | 0.00 | 0.02 | 0.01 | 91 | 1028.2 |
| 20260504140305 | 50 | 83 | 0.0 | 0.0 | 0.00 | 0.02 | 0.01 | 91 | 1028.2 |
| 20260504130804 | 53 | 83 | 0.0 | 2.0 | 0.00 | 0.02 | 0.01 | 91 | 1027.9 |
| 20260504130305 | 54 | 83 | 1.0 | 2.0 | 0.00 | 0.02 | 0.01 | 90 | 1027.9 |
| 20260504120305 | 56 | 101 | 0.0 | 1.0 | 0.00 | 0.02 | 0.01 | 90 | 1027.9 |
| 20260504100305 | 61 | 66 | 0.0 | 0.0 | 0.00 | 0.02 | 0.01 | 80 | 1027.1 |
| 20260504081305 | 65 | 154 | 1.0 | 3.0 | 0.00 | 0.02 | 0.01 | 76 | 1026.9 |
| 20260504080805 | 65 | 146 | 3.0 | 5.0 | 0.00 | 0.02 | 0.01 | 74 | 1026.9 |
| 20260504045305 | 66 | 82 | 2.0 | 3.0 | 0.00 | 0.02 | 0.01 | 70 | 1028.5 |
| 20260504044804 | 66 | 163 | 1.0 | 2.0 | 0.00 | 0.02 | 0.01 | 73 | 1028.5 |
| 20260504044305 | 65 | 103 | 1.0 | 2.0 | 0.00 | 0.02 | 0.01 | 75 | 1028.5 |
| 20260504043804 | 66 | 126 | 1.0 | 2.0 | 0.00 | 0.02 | 0.01 | 73 | 1028.5 |
| 20260504043305 | 65 | 154 | 1.0 | 1.0 | 0.00 | 0.02 | 0.01 | 77 | 1028.5 |
| 20260504042805 | 64 | 166 | 1.0 | 2.0 | 0.00 | 0.02 | 0.01 | 78 | 1028.5 |
| 20260504042305 | 64 | 186 | 1.0 | 2.0 | 0.00 | 0.02 | 0.01 | 79 | 1028.5 |
| 20260504041805 | 63 | 204 | 1.0 | 3.0 | 0.00 | 0.02 | 0.01 | 78 | 1028.5 |
| 20260504041304 | 64 | 134 | 1.0 | 3.0 | 0.00 | 0.02 | 0.01 | 78 | 1028.5 |
| 20260504040805 | 64 | 99 | 1.0 | 2.0 | 0.00 | 0.02 | 0.01 | 78 | 1028.5 |
| 20260504035804 | 65 | 82 | 2.0 | 5.0 | 0.00 | 0.02 | 0.01 | 77 | 1028.6 |
| 20260504035305 | 65 | 341 | 0.0 | 3.0 | 0.00 | 0.02 | 0.01 | 77 | 1029.3 |
| 20260504034806 | 64 | 56 | 3.0 | 6.0 | 0.00 | 0.02 | 0.01 | 79 | 1029.3 |
| 20260504034305 | 64 | 267 | 1.0 | 3.0 | 0.00 | 0.02 | 0.01 | 79 | 1029.3 |
| 20260504033805 | 64 | 211 | 2.0 | 3.0 | 0.00 | 0.02 | 0.01 | 80 | 1029.3 |
| 20260504033306 | 63 | 129 | 2.0 | 3.0 | 0.00 | 0.02 | 0.01 | 81 | 1029.3 |
| 20260504032806 | 64 | 197 | 2.0 | 3.0 | 0.00 | 0.02 | 0.01 | 82 | 1029.3 |
| 20260504032305 | 64 | 176 | 2.0 | 3.0 | 0.00 | 0.02 | 0.01 | 81 | 1029.3 |
| 20260504031304 | 63 | 116 | 1.0 | 6.0 | 0.00 | 0.02 | 0.01 | 83 | 1029.3 |
| 20260504030805 | 63 | 89 | 1.0 | 3.0 | 0.00 | 0.02 | 0.01 | 83 | 1029.3 |
| 20260504025805 | 62 | 337 | 1.0 | 3.0 | 0.00 | 0.02 | 0.01 | 85 | 1029.4 |
| 20260504025304 | 61 | 345 | 1.0 | 3.0 | 0.00 | 0.02 | 0.01 | 84 | 1029.4 |
| 20260504024805 | 61 | 206 | 2.0 | 3.0 | 0.00 | 0.02 | 0.01 | 85 | 1029.5 |
| 20260504024305 | 61 | 254 | 1.0 | 5.0 | 0.00 | 0.02 | 0.01 | 86 | 1029.7 |
| 20260504023806 | 60 | 173 | 2.0 | 3.0 | 0.00 | 0.02 | 0.01 | 87 | 1029.7 |
| 20260504023305 | 59 | 3 | 2.0 | 3.0 | 0.00 | 0.02 | 0.01 | 87 | 1029.7 |
| 20260504022804 | 59 | 11 | 2.0 | 3.0 | 0.00 | 0.02 | 0.01 | 89 | 1029.7 |
| 20260504022305 | 58 | 207 | 2.0 | 3.0 | 0.00 | 0.02 | 0.01 | 88 | 1029.7 |
| 20260504021805 | 58 | 194 | 1.0 | 3.0 | 0.00 | 0.02 | 0.01 | 89 | 1029.7 |
| 20260504020805 | 58 | 123 | 1.0 | 3.0 | 0.00 | 0.02 | 0.01 | 90 | 1029.7 |
| 20260504020304 | 58 | 75 | 1.0 | 3.0 | 0.00 | 0.02 | 0.01 | 90 | 1029.7 |
| 20260504015805 | 58 | 50 | 2.0 | 3.0 | 0.00 | 0.02 | 0.01 | 90 | 1029.7 |
| 20260504015305 | 58 | 324 | 2.0 | 5.0 | 0.00 | 0.02 | 0.01 | 90 | 1029.7 |
| 20260504014806 | 57 | 140 | 2.0 | 5.0 | 0.00 | 0.02 | 0.01 | 92 | 1029.7 |
| 20260504014305 | 57 | 33 | 4.0 | 6.0 | 0.00 | 0.02 | 0.01 | 92 | 1029.7 |